Location: Beneden-Haastrecht
(52.0012°N, 4.7557°E)
Time: 11:01:18
(UTC+00:00)

X-37B - Pass Details

Date: 25 January 2021
Orbit: 383 x 391 km, 45.0° (Epoch: 27 February)

Event Time Altitude Azimuth Distance (km) Brightness Sun altitude
Rises 17:26:28 0° 242° (WSW) 2,270 6.4 -10.7°
Reaches altitude 10° 17:28:48 10° 227° (SW) 1,417 4.5 -11.0°
Maximum altitude 17:31:21 22° 174° (S) 902 2.5 -11.4°
Enters shadow 17:33:47 11° 122° (ESE) 1,376 3.0 -11.8°
